ProjectID,Date,Electric Generation,Electric Utility Import,Facility Electric Load
,YYYY-MM-DD,kW,kW,kW
1955,2020-11-10,16.4625652173913,,16.4625652173913
1955,2020-11-11,34.39575,,34.39575
1955,2020-11-12,34.52395833333333,,34.52395833333333
1955,2020-11-13,34.432374999999986,,34.432374999999986
1955,2020-11-14,34.57966666666666,,34.57966666666666
1955,2020-11-15,34.47629166666666,,34.47629166666666
1955,2020-11-16,34.542500000000004,,34.542500000000004
1955,2020-11-17,34.53879166666667,,34.53879166666667
1955,2020-11-18,33.5485,,33.5485
1955,2020-11-19,20.885749999999998,,20.885749999999998
1955,2020-11-20,34.54033333333333,,34.54033333333333
1955,2020-11-21,34.613458333333334,,34.613458333333334
1955,2020-11-22,34.53058333333335,,34.53058333333335
1955,2020-11-23,34.55908333333333,,34.55908333333333
1955,2020-11-24,34.58779166666667,,34.58779166666667
1955,2020-11-25,34.529833333333336,,34.529833333333336
1955,2020-11-26,34.52458333333334,,34.52458333333334
1955,2020-11-27,34.59850000000001,,34.59850000000001
1955,2020-11-28,34.55641666666666,,34.55641666666666
1955,2020-11-29,34.60475,,34.60475
1955,2020-11-30,34.473166666666664,,34.473166666666664
1955,2020-12-01,34.633833333333335,,34.633833333333335
1955,2020-12-02,34.649125,,34.649125
1955,2020-12-03,34.60854166666666,,34.60854166666666
1955,2020-12-04,34.504625,,34.504625
1955,2020-12-05,34.495583333333336,,34.495583333333336
1955,2020-12-06,34.598416666666665,,34.598416666666665
1955,2020-12-07,34.50825,,34.50825
1955,2020-12-08,34.547125,,34.547125
1955,2020-12-09,34.53691666666666,,34.53691666666666
1955,2020-12-10,34.609833333333334,,34.609833333333334
1955,2020-12-11,34.53841666666667,,34.53841666666667
1955,2020-12-12,34.494208333333326,,34.494208333333326
1955,2020-12-13,34.57912499999999,,34.57912499999999
1955,2020-12-14,34.53670833333334,,34.53670833333334
1955,2020-12-15,34.64691666666666,,34.64691666666666
1955,2020-12-16,34.52004166666667,,34.52004166666667
1955,2020-12-17,34.578375,,34.578375
1955,2020-12-18,34.60341666666667,,34.60341666666667
1955,2020-12-19,34.552375000000005,,34.552375000000005
1955,2020-12-20,34.449875,,34.449875
1955,2020-12-21,34.443625000000004,,34.443625000000004
1955,2020-12-22,34.559125,,34.559125
1955,2020-12-23,20.090000000000003,,20.090000000000003
1955,2020-12-24,21.56216666666667,,21.56216666666667
1955,2020-12-25,34.54054166666666,,34.54054166666666
1955,2020-12-26,34.635875,,34.635875
1955,2020-12-27,34.619875,,34.619875
1955,2020-12-28,34.494458333333334,,34.494458333333334
1955,2020-12-29,34.618,,34.618
1955,2020-12-30,34.47429166666666,,34.47429166666666
1955,2020-12-31,34.53270833333333,,34.53270833333333
1955,2021-01-01,34.536750000000005,,34.536750000000005
1955,2021-01-02,34.51945833333333,,34.51945833333333
1955,2021-01-03,34.54212499999999,,34.54212499999999
1955,2021-01-04,34.53529166666667,,34.53529166666667
1955,2021-01-05,34.55325,,34.55325
1955,2021-01-06,34.58291666666666,,34.58291666666666
1955,2021-01-07,34.588541666666664,,34.588541666666664
1955,2021-01-08,34.541833333333344,,34.541833333333344
1955,2021-01-09,34.51425,,34.51425
1955,2021-01-10,34.59166666666667,,34.59166666666667
1955,2021-01-11,34.53433333333334,,34.53433333333334
1955,2021-01-12,34.462125,,34.462125
1955,2021-01-13,-0.032374999999999994,,-0.032374999999999994
1955,2021-01-14,15.427458333333334,,15.427458333333334
1955,2021-01-15,23.576499999999996,,23.576499999999996
1955,2021-01-16,0.9500833333333333,,0.9500833333333333
1955,2021-01-17,2.3904999999999985,,2.3904999999999985
1955,2021-01-18,-0.003375,,-0.003375
1955,2021-01-19,-0.08145833333333331,,-0.08145833333333331
1955,2021-01-20,-0.039208333333333324,,-0.039208333333333324
1955,2021-01-21,0.0,,0.0
1955,2021-01-22,3.6544166666666666,,3.6544166666666666
1955,2021-01-23,0.027333333333333324,,0.027333333333333324
1955,2021-01-24,-0.08000000000000003,,-0.08000000000000003
1955,2021-01-25,-0.08000000000000003,,-0.08000000000000003
1955,2021-01-26,2.6205416666666674,,2.6205416666666674
1955,2021-01-27,-0.08000000000000003,,-0.08000000000000003
1955,2021-01-28,18.616999999999994,,18.616999999999994
1955,2021-01-29,15.422958333333332,,15.422958333333332
1955,2021-01-30,18.554708333333334,,18.554708333333334
1955,2021-01-31,34.432291666666664,,34.432291666666664
1955,2021-02-01,33.287083333333335,,33.287083333333335
1955,2021-02-02,-0.003416666666666667,,-0.003416666666666667
1955,2021-02-03,-0.07858333333333335,,-0.07858333333333335
1955,2021-02-04,-0.08200000000000003,,-0.08200000000000003
1955,2021-02-05,-0.08200000000000003,,-0.08200000000000003
1955,2021-02-06,-0.08200000000000003,,-0.08200000000000003
1955,2021-02-07,-0.08200000000000003,,-0.08200000000000003
1955,2021-02-08,-0.08200000000000003,,-0.08200000000000003
1955,2021-02-09,-0.08200000000000003,,-0.08200000000000003
1955,2021-02-10,-0.08200000000000003,,-0.08200000000000003
1955,2021-02-11,-0.08200000000000003,,-0.08200000000000003
1955,2021-02-12,-0.08200000000000003,,-0.08200000000000003
1955,2021-02-13,-0.08200000000000003,,-0.08200000000000003
1955,2021-02-14,-0.08200000000000003,,-0.08200000000000003
1955,2021-02-15,-0.08200000000000003,,-0.08200000000000003
1955,2021-02-16,-0.08200000000000003,,-0.08200000000000003
1955,2021-02-17,-0.08200000000000003,,-0.08200000000000003
1955,2021-02-18,-0.08200000000000003,,-0.08200000000000003
1955,2021-02-19,-0.08200000000000003,,-0.08200000000000003
1955,2021-02-20,-0.08200000000000003,,-0.08200000000000003
1955,2021-02-21,-0.08200000000000003,,-0.08200000000000003
1955,2021-02-22,-0.08200000000000003,,-0.08200000000000003
1955,2021-02-23,-0.08200000000000003,,-0.08200000000000003
1955,2021-02-24,-0.08200000000000003,,-0.08200000000000003
1955,2021-02-25,-0.08200000000000003,,-0.08200000000000003
1955,2021-02-26,-0.08200000000000003,,-0.08200000000000003
1955,2021-02-27,-0.08200000000000003,,-0.08200000000000003
1955,2021-02-28,-0.08200000000000003,,-0.08200000000000003
1955,2021-03-01,-0.08200000000000003,,-0.08200000000000003
1955,2021-03-02,-0.08200000000000003,,-0.08200000000000003
1955,2021-03-03,-0.08200000000000003,,-0.08200000000000003
1955,2021-03-04,-0.08200000000000003,,-0.08200000000000003
1955,2021-03-05,-0.08200000000000003,,-0.08200000000000003
1955,2021-03-06,-0.08200000000000003,,-0.08200000000000003
1955,2021-03-07,-0.08200000000000003,,-0.08200000000000003
1955,2021-03-08,-0.08200000000000003,,-0.08200000000000003
1955,2021-03-09,-0.08200000000000003,,-0.08200000000000003
1955,2021-03-10,-0.08200000000000003,,-0.08200000000000003
1955,2021-03-11,-0.08200000000000003,,-0.08200000000000003
1955,2021-03-12,-0.08200000000000003,,-0.08200000000000003
1955,2021-03-13,-0.08200000000000003,,-0.08200000000000003
1955,2021-03-14,-0.08200000000000003,,-0.08200000000000003
1955,2021-03-15,-0.08200000000000003,,-0.08200000000000003
1955,2021-03-16,-0.07858333333333335,,-0.07858333333333335
1955,2021-03-17,-0.08200000000000003,,-0.08200000000000003
1955,2021-03-18,-0.08200000000000003,,-0.08200000000000003
1955,2021-03-19,-0.08200000000000003,,-0.08200000000000003
1955,2021-03-20,-0.08200000000000003,,-0.08200000000000003
1955,2021-03-21,-0.08200000000000003,,-0.08200000000000003
1955,2021-03-22,-0.08200000000000003,,-0.08200000000000003
1955,2021-03-23,-0.08200000000000003,,-0.08200000000000003
1955,2021-03-24,-0.08200000000000003,,-0.08200000000000003
1955,2021-03-25,-0.08200000000000003,,-0.08200000000000003
1955,2021-03-26,-0.08200000000000003,,-0.08200000000000003
1955,2021-03-27,-0.08200000000000003,,-0.08200000000000003
1955,2021-03-28,-0.08200000000000003,,-0.08200000000000003
1955,2021-03-29,-0.08200000000000003,,-0.08200000000000003
1955,2021-03-30,0.4964166666666667,,0.4964166666666667
1955,2021-03-31,2.896125,,2.896125
1955,2021-04-01,2.4485000000000006,,2.4485000000000006
1955,2021-04-02,5.805083333333333,,5.805083333333333
1955,2021-04-03,2.2462083333333336,,2.2462083333333336
1955,2021-04-04,2.272,,2.272
1955,2021-04-05,1.9719999999999995,,1.9719999999999995
1955,2021-04-06,2.264583333333334,,2.264583333333334
1955,2021-04-07,19.71333333333333,,19.71333333333333
1955,2021-04-08,34.470166666666664,,34.470166666666664
1955,2021-04-09,34.43754166666667,,34.43754166666667
1955,2021-04-10,34.3795,,34.3795
1955,2021-04-11,34.39841666666667,,34.39841666666667
1955,2021-04-12,34.489125,,34.489125
1955,2021-04-13,34.497375,,34.497375
1955,2021-04-14,34.407,,34.407
1955,2021-04-15,34.40783333333333,,34.40783333333333
1955,2021-04-16,34.48895833333333,,34.48895833333333
1955,2021-04-17,34.40995833333333,,34.40995833333333
1955,2021-04-18,34.44995833333333,,34.44995833333333
1955,2021-04-19,25.814541666666667,,25.814541666666667
1955,2021-04-20,2.5002083333333336,,2.5002083333333336
1955,2021-04-21,12.576083333333331,,12.576083333333331
1955,2021-04-22,26.512999999999995,,26.512999999999995
1955,2021-04-23,34.49620833333334,,34.49620833333334
1955,2021-04-24,34.49329166666667,,34.49329166666667
1955,2021-04-25,34.455625,,34.455625
1955,2021-04-26,34.54854166666667,,34.54854166666667
1955,2021-04-27,34.414875,,34.414875
1955,2021-04-28,34.358250000000005,,34.358250000000005
1955,2021-04-29,34.342291666666675,,34.342291666666675
1955,2021-04-30,34.47983333333334,,34.47983333333334
1955,2021-05-01,34.52670833333334,,34.52670833333334
1955,2021-05-02,34.38858333333333,,34.38858333333333
1955,2021-05-03,34.466125,,34.466125
1955,2021-05-04,34.403416666666665,,34.403416666666665
1955,2021-05-05,19.813166666666667,,19.813166666666667
1955,2021-05-06,20.452624999999998,,20.452624999999998
1955,2021-05-07,34.442458333333335,,34.442458333333335
1955,2021-05-08,34.38475,,34.38475
1955,2021-05-09,34.47050000000001,,34.47050000000001
1955,2021-05-10,25.19754166666667,,25.19754166666667
1955,2021-05-11,0.066875,,0.066875
1955,2021-05-12,0.0,,0.0
1955,2021-05-13,15.231541666666667,,15.231541666666667
1955,2021-05-14,34.461124999999996,,34.461124999999996
1955,2021-05-15,34.50604166666666,,34.50604166666666
1955,2021-05-16,34.485625,,34.485625
1955,2021-05-17,34.489375,,34.489375
1955,2021-05-18,34.48533333333332,,34.48533333333332
1955,2021-05-19,34.43291666666668,,34.43291666666668
1955,2021-05-20,34.531,,34.531
1955,2021-05-21,34.46512499999999,,34.46512499999999
1955,2021-05-22,34.37741666666666,,34.37741666666666
1955,2021-05-23,34.40475,,34.40475
1955,2021-05-24,34.55091666666666,,34.55091666666666
1955,2021-05-25,1.4395833333333332,,1.4395833333333332
